Regional Weather Roundup
Issued by NWS

Home | Current Version | Previous Version | Graphics & Text | Print | Product List | Glossary On
Versions: 1 2 3 4 5 6 7 8 9 10 11 12 13 14 15 16 17 18 19 20 21 22 23 24 25 26 27 28 29 30 31 32 33 34 35 36 37 38 39 40 41 42 43 44 45 46 47 48 49 50
000
ASUS44 KMEG 180310
RWRTN
TENNESSEE HOURLY STATE WEATHER ROUNDUP
NATIONAL WEATHER SERVICE MEMPHIS TN
1000 PM CDT TUE OCT 17 2017

TNZ002-004-019-021-049-052-054-088>092-180400-
WEST TENNESSEE

CITY           SKY/WX    TMP DP  RH WIND       PRES   REMARKS
MEMPHIS INTL   CLEAR     57  48  72 CALM      30.23S
NWS MEMPHIS      N/A     52 N/A N/A MISG        N/A
JACKSON        CLEAR     47  47 100 CALM      30.26R
SOMERVILLE     CLEAR     50  48  93 CALM      30.23S
COVINGTON      CLEAR     48  48 100 CALM      30.25R
UNION CITY     CLEAR     46  45  93 CALM      30.25R
BOLIVAR        FOG       46  46 100 CALM      30.24S VSB 1
PARIS          CLEAR     46  45  93 CALM      30.25S
HUNTINGDON     CLEAR     48  45  87 CALM      30.25R
LEXINGTON      CLEAR     48  48 100 CALM      30.26R
SELMER         CLEAR     48  46  93 CALM      30.25S
SAVANNAH       CLEAR     46  46 100 CALM      30.25S
$$

TNZ008-025-027-028-033-062-065-066-180400-
NORTH MIDDLE TENNESSEE

CITY           SKY/WX    TMP DP  RH WIND       PRES   REMARKS
NASHVILLE      PTCLDY    51  45  79 CALM      30.28R
PORTLAND       CLEAR     48  46  93 CALM      30.27S FOG
CLARKSVILLE    PTCLDY    49  45  86 CALM      30.27R
SMYRNA         CLEAR     45  44  97 CALM      30.29R
COOKEVILLE     CLEAR     43  43 100 CALM      30.28S FOG
GALLATIN       CLEAR     48  45  87 CALM      30.30S
CROSSVILLE     CLOUDY    44  41  89 CALM      30.31R
$$

TNZ061-075-076-078-094-096-097-180400-
SOUTH MIDDLE TENNESSEE

CITY           SKY/WX    TMP DP  RH WIND       PRES   REMARKS
FAYETTEVILLE   CLEAR     52  46  82 CALM      30.27R
TULLAHOMA      CLEAR     46  43  87 CALM      30.29S
WINCHESTER     CLEAR     46  46 100 CALM        N/A
COLUMBIA       CLEAR     48  46  93 CALM      30.26R
SHELBYVILLE    CLEAR     50  46  87 CALM      30.28R
$$

TNZ017-018-042-046-047-180400-
NORTHEAST TENNESSEE

CITY           SKY/WX    TMP DP  RH WIND       PRES   REMARKS
TRI CITIES     CLEAR     43  42  97 CALM      30.32R
ELIZABETHTON   CLEAR     46  41  81 CALM      30.33R
$$

TNZ012-013-036-069-073-074-180400-
CENTRAL EAST TENNESSEE

CITY           SKY/WX    TMP DP  RH WIND       PRES   REMARKS
KNOXVILLE      PTCLDY    49  46  90 CALM      30.29R
OAK RIDGE      CLEAR     48  47  96 CALM      30.31S
DOWNTOWN KNOXV CLEAR     48  46  93 CALM      30.30S
GATLINBURG     CLEAR     46  45  93 CALM      30.30S
MORRISTOWN     CLEAR     48  41  76 CALM      30.30S
JACKSBORO      CLEAR     45  45 100 CALM      30.34S
$$

TNZ083-085-099-180400-
SOUTHEAST TENNESSEE

CITY           SKY/WX    TMP DP  RH WIND       PRES   REMARKS
CHATTANOOGA    CLEAR     52  48  86 CALM      30.30R
DAYTON         CLEAR     46  46 100 CALM      30.29R
$$

SKY/WX REPORTED AS FAIR MEANS FEW OR NO CLOUDS BELOW
12 THOUSAND FEET.




USA.gov is the U.S. government's official web portal to all federal, state and local government web resources and services.